Torna al catalogo

SL-12 DEB

LostHEO
NORAD 29439·DEBRIS·🇷🇺 Russia

Lanciato May 31, 1989 da Baikonur Cosmodrome

Loading…

Prossimi Passaggi (prossime 24 ore)

TLE

ObsoletoSource: Space-Track

Epoca: Dec 21, 2006, 19:09 UTC

1 29439U 89039CN  06355.79836288  .00039610  00000-0  82577+0 0  9993
2 29439 064.5917 223.4298 5440713 066.0752 340.7472 04.32939619  8237

Traccia SL-12 DEB in tempo reale con AllMySat

Download on the App Store